Location: Kumla
(59.1265°N, 15.1401°E)
Time: 23:23:19
(UTC+01:00)

Vanguard 1 - Pass Details

Date: 07 December 2023
Orbit: 653 x 3825 km, 34.3° (Epoch: 04 March)

Event Time Altitude Azimuth Distance (km) Brightness Sun altitude
Rises 18:33:42 0° 230° (SW) 5,949 14.9 -24.7°
Reaches altitude 10° 18:37:48 10° 220° (SW) 5,358 14.3 -25.3°
Maximum altitude 18:51:38 31° 167° (SSE) 4,870 13.4 -27.0°
Enters shadow 19:02:18 21° 131° (SE) 5,913 13.5 -28.4°
